| time (UTC) | temp F | wind direction | speed MPH | gust MPH | rain 1hr in | rain 24hr in | rain mn in | humidity % | barometer mb |
| 20260901213344 | 56 | 327 | 4.0 | 6.0 | 0.00 | 0.00 | 0.00 | 81 | 1022.6 |
| 20260901212818 | 57 | 346 | 5.0 | 6.0 | 0.00 | 0.00 | 0.00 | 81 | 1022.7 |
| 20260901212316 | 57 | 351 | 5.0 | 6.0 | 0.00 | 0.00 | 0.00 | 81 | 1022.7 |
| 20260901211859 | 57 | 346 | 4.0 | 6.0 | 0.00 | 0.00 | 0.00 | 81 | 1022.6 |
| 20260901211359 | 57 | 349 | 4.0 | 6.0 | 0.00 | 0.00 | 0.00 | 81 | 1022.6 |
| 20260901210833 | 57 | 351 | 5.0 | 6.0 | 0.00 | 0.00 | 0.00 | 81 | 1022.6 |
| 20260901210329 | 57 | 350 | 5.0 | 6.0 | 0.00 | 0.00 | 0.00 | 80 | 1022.5 |
| 20260901205823 | 57 | 348 | 5.0 | 6.0 | 0.00 | 0.00 | 0.00 | 81 | 1022.6 |
| 20260901205321 | 57 | 350 | 5.0 | 6.0 | 0.00 | 0.00 | 0.00 | 81 | 1022.5 |
| 20260901204837 | 57 | 10 | 4.0 | 5.0 | 0.00 | 0.00 | 0.00 | 81 | 1022.4 |
| 20260901204333 | 57 | 351 | 4.0 | 5.0 | 0.00 | 0.00 | 0.00 | 81 | 1022.5 |
| 20260901203826 | 57 | 347 | 3.0 | 3.0 | 0.00 | 0.00 | 0.00 | 81 | 1022.5 |
| 20260901203324 | 57 | 341 | 3.0 | 3.0 | 0.00 | 0.00 | 0.00 | 81 | 1022.4 |
| 20260901202818 | 57 | 341 | 1.0 | 4.0 | 0.00 | 0.00 | 0.00 | 81 | 1022.3 |
| 20260901202336 | 57 | 341 | 2.0 | 5.0 | 0.00 | 0.00 | 0.00 | 81 | 1022.3 |
| 20260901201852 | 57 | 338 | 4.0 | 5.0 | 0.00 | 0.00 | 0.00 | 81 | 1022.3 |
| 20260901201327 | 58 | 336 | 4.0 | 5.0 | 0.00 | 0.00 | 0.00 | 80 | 1022.3 |
| 20260901200822 | 57 | 9 | 2.0 | 3.0 | 0.00 | 0.00 | 0.00 | 81 | 1022.3 |
| 20260901200340 | 58 | 9 | 1.0 | 4.0 | 0.00 | 0.00 | 0.00 | 79 | 1022.3 |
| 20260901195833 | 58 | 9 | 3.0 | 4.0 | 0.00 | 0.00 | 0.00 | 79 | 1022.3 |
| 20260901195329 | 58 | 9 | 2.0 | 4.0 | 0.00 | 0.00 | 0.00 | 78 | 1022.3 |
| 20260901194824 | 58 | 9 | 1.0 | 2.0 | 0.00 | 0.00 | 0.00 | 77 | 1022.2 |
| 20260901194322 | 59 | 9 | 1.0 | 3.0 | 0.00 | 0.00 | 0.00 | 76 | 1022.2 |
| 20260901193817 | 60 | 9 | 1.0 | 3.0 | 0.00 | 0.00 | 0.00 | 75 | 1022.1 |
| 20260901193315 | 60 | 360 | 0.0 | 2.0 | 0.00 | 0.00 | 0.00 | 73 | 1022.0 |
| 20260901192831 | 61 | 360 | 1.0 | 2.0 | 0.00 | 0.00 | 0.00 | 72 | 1021.9 |
| 20260901192329 | 61 | 9 | 1.0 | 2.0 | 0.00 | 0.00 | 0.00 | 73 | 1021.8 |
| 20260901191826 | 61 | 9 | 1.0 | 2.0 | 0.00 | 0.00 | 0.00 | 73 | 1021.9 |
| 20260901191324 | 61 | 9 | 2.0 | 3.0 | 0.00 | 0.00 | 0.00 | 73 | 1021.8 |
| 20260901190820 | 61 | 9 | 2.0 | 4.0 | 0.00 | 0.00 | 0.00 | 73 | 1021.8 |
| 20260901190320 | 62 | 9 | 2.0 | 4.0 | 0.00 | 0.00 | 0.00 | 72 | 1021.8 |
| 20260901185816 | 62 | 9 | 3.0 | 4.0 | 0.00 | 0.00 | 0.00 | 71 | 1021.8 |
| 20260901185314 | 63 | 23 | 3.0 | 4.0 | 0.00 | 0.00 | 0.00 | 70 | 1021.8 |
| 20260901184830 | 63 | 28 | 2.0 | 3.0 | 0.00 | 0.00 | 0.00 | 69 | 1021.7 |
| 20260901184329 | 63 | 28 | 2.0 | 3.0 | 0.00 | 0.00 | 0.00 | 69 | 1021.6 |
| 20260901183825 | 64 | 28 | 2.0 | 3.0 | 0.00 | 0.00 | 0.00 | 68 | 1021.5 |
| 20260901183324 | 64 | 28 | 2.0 | 4.0 | 0.00 | 0.00 | 0.00 | 68 | 1021.5 |
| 20260901182840 | 65 | 28 | 3.0 | 5.0 | 0.00 | 0.00 | 0.00 | 66 | 1021.5 |
| 20260901182338 | 65 | 15 | 3.0 | 5.0 | 0.00 | 0.00 | 0.00 | 65 | 1021.6 |
| 20260901181815 | 66 | 11 | 3.0 | 6.0 | 0.00 | 0.00 | 0.00 | 63 | 1021.6 |
| 20260901181313 | 67 | 24 | 4.0 | 6.0 | 0.00 | 0.00 | 0.00 | 61 | 1021.5 |
| 20260901180829 | 68 | 9 | 4.0 | 6.0 | 0.00 | 0.00 | 0.00 | 59 | 1021.6 |
| 20260901180325 | 69 | 355 | 4.0 | 6.0 | 0.00 | 0.00 | 0.00 | 58 | 1021.6 |
| 20260901175820 | 69 | 349 | 3.0 | 6.0 | 0.00 | 0.00 | 0.00 | 56 | 1021.5 |
| 20260901175318 | 70 | 333 | 4.0 | 6.0 | 0.00 | 0.00 | 0.00 | 55 | 1021.5 |
| 20260901174830 | 70 | 331 | 5.0 | 8.0 | 0.00 | 0.00 | 0.00 | 54 | 1021.6 |
| 20260901174326 | 70 | 309 | 5.0 | 8.0 | 0.00 | 0.00 | 0.00 | 55 | 1021.6 |
| 20260901173824 | 71 | 346 | 2.0 | 6.0 | 0.00 | 0.00 | 0.00 | 54 | 1021.5 |
| 20260901173323 | 71 | 341 | 4.0 | 8.0 | 0.00 | 0.00 | 0.00 | 53 | 1021.6 |
| 20260901172817 | 71 | 333 | 5.0 | 8.0 | 0.00 | 0.00 | 0.00 | 52 | 1021.6 |
| 20260901172317 | 71 | 331 | 4.0 | 8.0 | 0.00 | 0.00 | 0.00 | 52 | 1021.6 |
| 20260901171832 | 72 | 311 | 5.0 | 9.0 | 0.00 | 0.00 | 0.00 | 50 | 1021.6 |
| 20260901171351 | 72 | 315 | 6.0 | 9.0 | 0.00 | 0.00 | 0.00 | 50 | 1021.5 |
| 20260901170827 | 73 | 317 | 5.0 | 12.0 | 0.00 | 0.00 | 0.00 | 49 | 1021.6 |
| 20260901170324 | 73 | 333 | 6.0 | 12.0 | 0.00 | 0.00 | 0.00 | 49 | 1021.6 |
| 20260901165820 | 73 | 340 | 3.0 | 5.0 | 0.00 | 0.00 | 0.00 | 51 | 1021.5 |
| 20260901165320 | 73 | 294 | 1.0 | 3.0 | 0.00 | 0.00 | 0.00 | 52 | 1021.5 |
| 20260901164816 | 73 | 276 | 2.0 | 4.0 | 0.00 | 0.00 | 0.00 | 50 | 1021.5 |
| 20260901164313 | 73 | 276 | 3.0 | 8.0 | 0.00 | 0.00 | 0.00 | 50 | 1021.6 |
| 20260901163833 | 73 | 297 | 5.0 | 8.0 | 0.00 | 0.00 | 0.00 | 50 | 1021.5 |
| 20260901163331 | 73 | 242 | 3.0 | 9.0 | 0.00 | 0.00 | 0.00 | 50 | 1021.5 |
| 20260901162824 | 73 | 298 | 6.0 | 9.0 | 0.00 | 0.00 | 0.00 | 49 | 1021.6 |
| 20260901162322 | 73 | 270 | 4.0 | 10.0 | 0.00 | 0.00 | 0.00 | 49 | 1021.4 |
| 20260901161817 | 74 | 290 | 5.0 | 10.0 | 0.00 | 0.00 | 0.00 | 49 | 1021.5 |
| 20260901161315 | 74 | 13 | 3.0 | 7.0 | 0.00 | 0.00 | 0.00 | 49 | 1021.4 |
| 20260901160832 | 73 | 37 | 6.0 | 8.0 | 0.00 | 0.00 | 0.00 | 50 | 1021.6 |
| 20260901160329 | 73 | 322 | 0.0 | 6.0 | 0.00 | 0.00 | 0.00 | 49 | 1021.6 |
| 20260901155823 | 74 | 322 | 4.0 | 8.0 | 0.00 | 0.00 | 0.00 | 50 | 1021.6 |
| 20260901155321 | 74 | 286 | 3.0 | 8.0 | 0.00 | 0.00 | 0.00 | 49 | 1021.5 |
| 20260901154816 | 74 | 288 | 2.0 | 8.0 | 0.00 | 0.00 | 0.00 | 50 | 1021.6 |
| 20260901154334 | 74 | 256 | 6.0 | 10.0 | 0.00 | 0.00 | 0.00 | 49 | 1021.6 |
| 20260901153850 | 74 | 250 | 4.0 | 10.0 | 0.00 | 0.00 | 0.00 | 49 | 1021.5 |
| 20260901153326 | 74 | 215 | 2.0 | 5.0 | 0.00 | 0.00 | 0.00 | 50 | 1021.5 |
| 20260901152822 | 74 | 348 | 4.0 | 6.0 | 0.00 | 0.00 | 0.00 | 51 | 1021.5 |
| 20260901152321 | 74 | 329 | 2.0 | 12.0 | 0.00 | 0.00 | 0.00 | 49 | 1021.6 |
| 20260901151837 | 75 | 281 | 8.0 | 12.0 | 0.00 | 0.00 | 0.00 | 49 | 1021.7 |
| 20260901151314 | 74 | 327 | 6.0 | 12.0 | 0.00 | 0.00 | 0.00 | 49 | 1021.6 |
| 20260901150831 | 75 | 321 | 8.0 | 12.0 | 0.00 | 0.00 | 0.00 | 47 | 1021.7 |
| 20260901150329 | 75 | 230 | 3.0 | 10.0 | 0.00 | 0.00 | 0.00 | 48 | 1021.7 |
| 20260901145836 | 75 | 281 | 7.0 | 10.0 | 0.00 | 0.00 | 0.00 | 48 | 1021.7 |
| 20260901145350 | 75 | 342 | 4.0 | 8.0 | 0.00 | 0.00 | 0.00 | 48 | 1021.7 |
| 20260901144825 | 75 | 307 | 4.0 | 11.0 | 0.00 | 0.00 | 0.00 | 49 | 1021.8 |
| 20260901144325 | 75 | 331 | 6.0 | 11.0 | 0.00 | 0.00 | 0.00 | 49 | 1021.7 |
| 20260901143839 | 76 | 254 | 6.0 | 11.0 | 0.00 | 0.00 | 0.00 | 46 | 1021.8 |
| 20260901143313 | 75 | 313 | 7.0 | 11.0 | 0.00 | 0.00 | 0.00 | 49 | 1021.8 |
| 20260901142830 | 75 | 334 | 7.0 | 10.0 | 0.00 | 0.00 | 0.00 | 50 | 1021.8 |
| 20260901142327 | 76 | 345 | 7.0 | 12.0 | 0.00 | 0.00 | 0.00 | 49 | 1021.9 |
| 20260901141822 | 76 | 301 | 4.0 | 10.0 | 0.00 | 0.00 | 0.00 | 48 | 1021.8 |
| 20260901141320 | 75 | 323 | 6.0 | 10.0 | 0.00 | 0.00 | 0.00 | 49 | 1021.9 |
| 20260901140838 | 74 | 243 | 4.0 | 8.0 | 0.00 | 0.00 | 0.00 | 52 | 1022.0 |
| 20260901140314 | 74 | 247 | 2.0 | 12.0 | 0.00 | 0.00 | 0.00 | 50 | 1021.9 |
| 20260901135830 | 74 | 279 | 7.0 | 12.0 | 0.00 | 0.00 | 0.00 | 50 | 1022.0 |
| 20260901135329 | 74 | 307 | 1.0 | 9.0 | 0.00 | 0.00 | 0.00 | 52 | 1021.9 |
| 20260901134845 | 73 | 282 | 5.0 | 9.0 | 0.00 | 0.00 | 0.00 | 51 | 1022.0 |
| 20260901134342 | 75 | 284 | 4.0 | 13.0 | 0.00 | 0.00 | 0.00 | 50 | 1022.0 |
| 20260901133817 | 74 | 298 | 8.0 | 12.0 | 0.00 | 0.00 | 0.00 | 50 | 1022.1 |
| 20260901133315 | 75 | 261 | 2.0 | 9.0 | 0.00 | 0.00 | 0.00 | 50 | 1022.1 |
| 20260901132833 | 73 | 240 | 4.0 | 9.0 | 0.00 | 0.00 | 0.00 | 51 | 1022.2 |
| 20260901132329 | 73 | 267 | 3.0 | 11.0 | 0.00 | 0.00 | 0.00 | 50 | 1022.2 |
| 20260901131823 | 75 | 265 | 2.0 | 14.0 | 0.00 | 0.00 | 0.00 | 50 | 1022.2 |
| 20260901131323 | 75 | 326 | 8.0 | 14.0 | 0.00 | 0.00 | 0.00 | 51 | 1022.2 |
| 20260901130816 | 75 | 113 | 7.0 | 11.0 | 0.00 | 0.00 | 0.00 | 51 | 1022.2 |
| 20260901130334 | 74 | 286 | 3.0 | 12.0 | 0.00 | 0.00 | 0.00 | 53 | 1022.3 |
| 20260901125828 | 75 | 291 | 5.0 | 13.0 | 0.00 | 0.00 | 0.00 | 49 | 1022.3 |
| 20260901125325 | 75 | 283 | 8.0 | 13.0 | 0.00 | 0.00 | 0.00 | 51 | 1022.4 |
| 20260901124821 | 74 | 292 | 8.0 | 14.0 | 0.00 | 0.00 | 0.00 | 52 | 1022.5 |
| 20260901124321 | 75 | 293 | 7.0 | 15.0 | 0.00 | 0.00 | 0.00 | 52 | 1022.6 |
| 20260901123833 | 75 | 289 | 9.0 | 14.0 | 0.00 | 0.00 | 0.00 | 53 | 1022.5 |
| 20260901123330 | 75 | 210 | 4.0 | 14.0 | 0.00 | 0.00 | 0.00 | 51 | 1022.6 |
| 20260901122825 | 74 | 219 | 3.0 | 9.0 | 0.00 | 0.00 | 0.00 | 53 | 1022.6 |
| 20260901122322 | 74 | 285 | 5.0 | 11.0 | 0.00 | 0.00 | 0.00 | 53 | 1022.8 |
| 20260901121819 | 74 | 360 | 7.0 | 13.0 | 0.00 | 0.00 | 0.00 | 54 | 1022.8 |
| 20260901121317 | 73 | 300 | 8.0 | 13.0 | 0.00 | 0.00 | 0.00 | 56 | 1022.8 |
| 20260901120814 | 72 | 163 | 4.0 | 11.0 | 0.00 | 0.00 | 0.00 | 55 | 1022.8 |
| 20260901120314 | 72 | 236 | 6.0 | 13.0 | 0.00 | 0.00 | 0.00 | 55 | 1022.8 |
| 20260901115830 | 73 | 238 | 7.0 | 13.0 | 0.00 | 0.00 | 0.00 | 54 | 1022.8 |
| 20260901115327 | 75 | 265 | 6.0 | 11.0 | 0.00 | 0.00 | 0.00 | 53 | 1022.9 |
| 20260901114822 | 74 | 323 | 6.0 | 12.0 | 0.00 | 0.00 | 0.00 | 55 | 1022.9 |
| 20260901114320 | 74 | 254 | 7.0 | 12.0 | 0.00 | 0.00 | 0.00 | 54 | 1022.8 |
| 20260901113814 | 74 | 221 | 2.0 | 12.0 | 0.00 | 0.00 | 0.00 | 54 | 1022.8 |
| 20260901113331 | 74 | 254 | 7.0 | 11.0 | 0.00 | 0.00 | 0.00 | 55 | 1022.8 |
| 20260901112824 | 73 | 273 | 4.0 | 12.0 | 0.00 | 0.00 | 0.00 | 58 | 1022.8 |
| 20260901112340 | 73 | 240 | 4.0 | 12.0 | 0.00 | 0.00 | 0.00 | 57 | 1022.9 |
| 20260901111853 | 72 | 261 | 6.0 | 12.0 | 0.00 | 0.00 | 0.00 | 57 | 1022.9 |
| 20260901111330 | 72 | 260 | 7.0 | 12.0 | 0.00 | 0.00 | 0.00 | 57 | 1023.0 |
| 20260901110826 | 73 | 242 | 5.0 | 9.0 | 0.00 | 0.00 | 0.00 | 55 | 1023.0 |
| 20260901110322 | 72 | 242 | 4.0 | 14.0 | 0.00 | 0.00 | 0.00 | 58 | 1023.0 |
| 20260901105815 | 72 | 291 | 7.0 | 14.0 | 0.00 | 0.00 | 0.00 | 57 | 1023.1 |
| 20260901105314 | 72 | 332 | 5.0 | 12.0 | 0.00 | 0.00 | 0.00 | 58 | 1023.0 |
| 20260901104851 | 72 | 289 | 6.0 | 12.0 | 0.00 | 0.00 | 0.00 | 58 | 1023.1 |
| 20260901104327 | 72 | 266 | 4.0 | 15.0 | 0.00 | 0.00 | 0.00 | 62 | 1023.0 |
| 20260901103822 | 71 | 277 | 10.0 | 15.0 | 0.00 | 0.00 | 0.00 | 58 | 1023.1 |
| 20260901103319 | 72 | 277 | 6.0 | 14.0 | 0.00 | 0.00 | 0.00 | 58 | 1023.1 |
| 20260901102816 | 72 | 332 | 2.0 | 12.0 | 0.00 | 0.00 | 0.00 | 56 | 1023.1 |
| 20260901102335 | 72 | 284 | 8.0 | 12.0 | 0.00 | 0.00 | 0.00 | 59 | 1023.1 |
| 20260901101829 | 71 | 213 | 4.0 | 10.0 | 0.00 | 0.00 | 0.00 | 58 | 1023.0 |
| 20260901101342 | 70 | 317 | 5.0 | 11.0 | 0.00 | 0.00 | 0.00 | 60 | 1023.1 |
| 20260901100816 | 71 | 225 | 9.0 | 14.0 | 0.00 | 0.00 | 0.00 | 60 | 1023.1 |
| 20260901100313 | 71 | 284 | 6.0 | 11.0 | 0.00 | 0.00 | 0.00 | 64 | 1023.2 |
| 20260901095827 | 70 | 243 | 5.0 | 9.0 | 0.00 | 0.00 | 0.00 | 65 | 1023.2 |
| 20260901095346 | 70 | 259 | 4.0 | 12.0 | 0.00 | 0.00 | 0.00 | 64 | 1023.2 |
| 20260901094820 | 70 | 274 | 4.0 | 12.0 | 0.00 | 0.00 | 0.00 | 65 | 1023.3 |
| 20260901094337 | 69 | 279 | 5.0 | 12.0 | 0.00 | 0.00 | 0.00 | 67 | 1023.3 |
| 20260901093852 | 69 | 271 | 9.0 | 12.0 | 0.00 | 0.00 | 0.00 | 68 | 1023.3 |
| 20260901093330 | 68 | 205 | 3.0 | 11.0 | 0.00 | 0.00 | 0.00 | 69 | 1023.3 |
| 20260901092825 | 68 | 260 | 5.0 | 11.0 | 0.00 | 0.00 | 0.00 | 70 | 1023.3 |
| 20260901092340 | 68 | 286 | 3.0 | 9.0 | 0.00 | 0.00 | 0.00 | 71 | 1023.3 |
| 20260901091815 | 69 | 312 | 6.0 | 9.0 | 0.00 | 0.00 | 0.00 | 72 | 1023.3 |
| 20260901091401 | 68 | 255 | 5.0 | 8.0 | 0.00 | 0.00 | 0.00 | 72 | 1023.3 |
| 20260901090855 | 68 | 265 | 4.0 | 10.0 | 0.00 | 0.00 | 0.00 | 73 | 1023.3 |
| 20260901090352 | 68 | 332 | 6.0 | 10.0 | 0.00 | 0.00 | 0.00 | 72 | 1023.3 |
| 20260901085827 | 67 | 257 | 2.0 | 6.0 | 0.00 | 0.00 | 0.00 | 74 | 1023.2 |
| 20260901085323 | 67 | 340 | 2.0 | 6.0 | 0.00 | 0.00 | 0.00 | 73 | 1023.2 |
| 20260901084821 | 67 | 360 | 1.0 | 5.0 | 0.00 | 0.00 | 0.00 | 75 | 1023.2 |
| 20260901084318 | 66 | 291 | 1.0 | 5.0 | 0.00 | 0.00 | 0.00 | 77 | 1023.3 |
| 20260901083832 | 65 | 284 | 3.0 | 5.0 | 0.00 | 0.00 | 0.00 | 78 | 1023.3 |
| 20260901083329 | 64 | 255 | 3.0 | 5.0 | 0.00 | 0.00 | 0.00 | 79 | 1023.3 |
| 20260901082822 | 64 | 281 | 3.0 | 6.0 | 0.00 | 0.00 | 0.00 | 79 | 1023.2 |
| 20260901082319 | 64 | 319 | 3.0 | 6.0 | 0.00 | 0.00 | 0.00 | 81 | 1023.3 |
| 20260901081830 | 64 | 277 | 3.0 | 7.0 | 0.00 | 0.00 | 0.00 | 80 | 1023.2 |
| 20260901081327 | 63 | 308 | 4.0 | 10.0 | 0.00 | 0.00 | 0.00 | 81 | 1023.2 |
| 20260901080822 | 64 | 328 | 3.0 | 10.0 | 0.00 | 0.00 | 0.00 | 81 | 1023.3 |
| 20260901080318 | 64 | 328 | 3.0 | 5.0 | 0.00 | 0.00 | 0.00 | 82 | 1023.2 |
| 20260901075813 | 63 | 271 | 2.0 | 4.0 | 0.00 | 0.00 | 0.00 | 83 | 1023.1 |
| 20260901075326 | 63 | 275 | 3.0 | 4.0 | 0.00 | 0.00 | 0.00 | 83 | 1023.1 |
| 20260901074821 | 63 | 290 | 0.0 | 4.0 | 0.00 | 0.00 | 0.00 | 84 | 1023.0 |
| 20260901074318 | 62 | 290 | 2.0 | 4.0 | 0.00 | 0.00 | 0.00 | 84 | 1023.0 |
| 20260901073815 | 62 | 254 | 2.0 | 4.0 | 0.00 | 0.00 | 0.00 | 85 | 1022.9 |
| 20260901073333 | 62 | 294 | 0.0 | 2.0 | 0.00 | 0.00 | 0.00 | 85 | 1022.9 |
| 20260901072848 | 62 | 294 | 1.0 | 3.0 | 0.00 | 0.00 | 0.00 | 85 | 1022.8 |
| 20260901072325 | 61 | 295 | 1.0 | 3.0 | 0.00 | 0.00 | 0.00 | 86 | 1022.9 |
| 20260901071820 | 61 | 295 | 0.0 | 3.0 | 0.00 | 0.00 | 0.00 | 85 | 1022.8 |
| 20260901071317 | 61 | 294 | 1.0 | 3.0 | 0.00 | 0.00 | 0.00 | 86 | 1022.8 |
| 20260901070832 | 61 | 360 | 1.0 | 4.0 | 0.00 | 0.00 | 0.00 | 88 | 1022.8 |
| 20260901070352 | 61 | 333 | 1.0 | 4.0 | 0.00 | 0.00 | 0.00 | 88 | 1022.8 |
| 20260901065825 | 61 | 342 | 2.0 | 4.0 | 0.00 | 0.00 | 0.00 | 89 | 1022.8 |
| 20260901065322 | 60 | 332 | 3.0 | 4.0 | 0.00 | 0.00 | 0.00 | 91 | 1022.8 |
| 20260901064836 | 60 | 331 | 2.0 | 5.0 | 0.00 | 0.00 | 0.00 | 91 | 1022.8 |
| 20260901064332 | 59 | 339 | 3.0 | 5.0 | 0.00 | 0.00 | 0.00 | 92 | 1022.8 |
| 20260901063847 | 58 | 324 | 3.0 | 4.0 | 0.00 | 0.00 | 0.00 | 93 | 1022.8 |
| 20260901063321 | 57 | 217 | 0.0 | 1.0 | 0.00 | 0.00 | 0.00 | 93 | 1022.8 |
| 20260901062834 | 57 | 217 | 0.0 | 1.0 | 0.00 | 0.00 | 0.00 | 93 | 1022.8 |
| 20260901062352 | 57 | 217 | 0.0 | 0.0 | 0.00 | 0.00 | 0.00 | 93 | 1022.8 |
| 20260901061826 | 56 | 217 | 0.0 | 0.0 | 0.00 | 0.00 | 0.00 | 93 | 1022.7 |
| 20260901061323 | 56 | 217 | 0.0 | 0.0 | 0.00 | 0.00 | 0.00 | 93 | 1022.7 |
| 20260901060818 | 56 | 217 | 0.0 | 0.0 | 0.00 | 0.00 | 0.00 | 94 | 1022.7 |
| 20260901060314 | 56 | 217 | 0.0 | 0.0 | 0.00 | 0.00 | 0.00 | 94 | 1022.7 |
| 20260901055829 | 55 | 217 | 0.0 | 0.0 | 0.00 | 0.00 | 0.00 | 94 | 1022.6 |
| 20260901055324 | 55 | 217 | 0.0 | 0.0 | 0.00 | 0.00 | 0.00 | 93 | 1022.7 |
| 20260901054821 | 55 | 217 | 0.0 | 1.0 | 0.00 | 0.00 | 0.00 | 93 | 1022.6 |
| 20260901054318 | 54 | 217 | 0.0 | 1.0 | 0.00 | 0.00 | 0.00 | 93 | 1022.5 |
| 20260901053834 | 54 | 217 | 0.0 | 1.0 | 0.00 | 0.00 | 0.00 | 93 | 1022.4 |
| 20260901053352 | 54 | 217 | 0.0 | 1.0 | 0.00 | 0.00 | 0.00 | 93 | 1022.3 |
| 20260901052828 | 54 | 217 | 0.0 | 1.0 | 0.00 | 0.00 | 0.00 | 93 | 1022.3 |
| 20260901052325 | 55 | 217 | 0.0 | 2.0 | 0.00 | 0.00 | 0.00 | 93 | 1022.3 |
| 20260901051820 | 55 | 217 | 1.0 | 2.0 | 0.00 | 0.00 | 0.00 | 93 | 1022.2 |
| 20260901051339 | 55 | 217 | 0.0 | 1.0 | 0.00 | 0.00 | 0.00 | 93 | 1022.2 |
| 20260901050833 | 55 | 217 | 0.0 | 1.0 | 0.00 | 0.00 | 0.00 | 93 | 1022.2 |
| 20260901050331 | 55 | 217 | 0.0 | 1.0 | 0.00 | 0.00 | 0.00 | 93 | 1022.2 |
| 20260901045846 | 55 | 217 | 0.0 | 0.0 | 0.00 | 0.00 | 0.00 | 93 | 1022.3 |
| 20260901045323 | 55 | 217 | 0.0 | 1.0 | 0.00 | 0.00 | 0.00 | 93 | 1022.3 |
| 20260901044839 | 55 | 217 | 0.0 | 1.0 | 0.00 | 0.00 | 0.00 | 93 | 1022.3 |
| 20260901044316 | 55 | 217 | 0.0 | 1.0 | 0.00 | 0.00 | 0.00 | 93 | 1022.3 |
| 20260901043830 | 55 | 217 | 0.0 | 1.0 | 0.00 | 0.00 | 0.00 | 93 | 1022.3 |
| 20260901043329 | 55 | 217 | 1.0 | 2.0 | 0.00 | 0.00 | 0.00 | 93 | 1022.3 |
| 20260901042824 | 55 | 217 | 1.0 | 2.0 | 0.00 | 0.00 | 0.00 | 93 | 1022.2 |
| 20260901042344 | 55 | 217 | 0.0 | 1.0 | 0.00 | 0.00 | 0.00 | 93 | 1022.2 |
| 20260901041818 | 55 | 217 | 0.0 | 1.0 | 0.00 | 0.00 | 0.00 | 93 | 1022.2 |
| 20260901041337 | 55 | 217 | 0.0 | 0.0 | 0.00 | 0.00 | 0.00 | 93 | 1022.2 |
| 20260901040832 | 54 | 217 | 0.0 | 0.0 | 0.00 | 0.00 | 0.00 | 93 | 1022.2 |
| 20260901040330 | 54 | 217 | 0.0 | 0.0 | 0.00 | 0.00 | 0.00 | 93 | 1022.2 |
| 20260901035825 | 54 | 217 | 0.0 | 0.0 | 0.00 | 0.00 | 0.00 | 94 | 1022.1 |
| 20260901035324 | 54 | 217 | 0.0 | 0.0 | 0.00 | 0.00 | 0.00 | 93 | 1022.2 |
| 20260901034820 | 54 | 217 | 0.0 | 0.0 | 0.00 | 0.00 | 0.00 | 93 | 1022.2 |
| 20260901034317 | 54 | 217 | 0.0 | 0.0 | 0.00 | 0.00 | 0.00 | 93 | 1022.2 |
| 20260901033831 | 54 | 217 | 0.0 | 0.0 | 0.00 | 0.00 | 0.00 | 94 | 1022.3 |
| 20260901033328 | 54 | 217 | 0.0 | 0.0 | 0.00 | 0.00 | 0.00 | 93 | 1022.3 |
| 20260901032822 | 53 | 217 | 0.0 | 1.0 | 0.00 | 0.00 | 0.00 | 93 | 1022.3 |
| 20260901032341 | 54 | 217 | 0.0 | 1.0 | 0.00 | 0.00 | 0.00 | 93 | 1022.3 |
| 20260901031816 | 54 | 217 | 0.0 | 1.0 | 0.00 | 0.00 | 0.00 | 94 | 1022.3 |
| 20260901031314 | 53 | 217 | 0.0 | 1.0 | 0.00 | 0.00 | 0.00 | 94 | 1022.2 |
| 20260901030831 | 53 | 217 | 0.0 | 1.0 | 0.00 | 0.00 | 0.00 | 93 | 1022.2 |
| 20260901030331 | 53 | 217 | 1.0 | 1.0 | 0.00 | 0.00 | 0.00 | 93 | 1022.2 |
| 20260901025825 | 53 | 217 | 0.0 | 1.0 | 0.00 | 0.00 | 0.00 | 93 | 1022.2 |
| 20260901025322 | 53 | 217 | 0.0 | 1.0 | 0.00 | 0.00 | 0.00 | 93 | 1022.1 |
| 20260901024817 | 52 | 217 | 1.0 | 1.0 | 0.00 | 0.00 | 0.00 | 93 | 1022.1 |
| 20260901024314 | 52 | 217 | 0.0 | 1.0 | 0.00 | 0.00 | 0.00 | 93 | 1022.0 |
| 20260901023829 | 52 | 217 | 0.0 | 0.0 | 0.00 | 0.00 | 0.00 | 93 | 1022.0 |
| 20260901023343 | 52 | 217 | 0.0 | 0.0 | 0.00 | 0.00 | 0.00 | 93 | 1021.9 |
| 20260901022813 | 52 | 217 | 0.0 | 0.0 | 0.00 | 0.00 | 0.00 | 93 | 1021.9 |
| 20260901022356 | 52 | 217 | 0.0 | 0.0 | 0.00 | 0.00 | 0.00 | 93 | 1021.9 |
| 20260901021850 | 52 | 217 | 0.0 | 0.0 | 0.00 | 0.00 | 0.00 | 93 | 1021.9 |
| 20260901021326 | 51 | 217 | 0.0 | 1.0 | 0.00 | 0.00 | 0.00 | 93 | 1022.0 |
| 20260901020823 | 51 | 217 | 0.0 | 1.0 | 0.00 | 0.00 | 0.00 | 93 | 1022.0 |
| 20260901020340 | 52 | 217 | 0.0 | 2.0 | 0.00 | 0.00 | 0.00 | 93 | 1021.9 |
| 20260901015832 | 52 | 217 | 1.0 | 2.0 | 0.00 | 0.04 | 0.00 | 93 | 1021.9 |
| 20260901015331 | 51 | 217 | 1.0 | 2.0 | 0.00 | 0.04 | 0.00 | 93 | 1021.8 |
| 20260901014827 | 51 | 217 | 0.0 | 0.0 | 0.00 | 0.04 | 0.00 | 93 | 1021.9 |
| 20260901014323 | 51 | 217 | 0.0 | 0.0 | 0.00 | 0.04 | 0.00 | 93 | 1021.9 |
| 20260901013939 | 51 | 217 | 0.0 | 0.0 | 0.00 | 0.04 | 0.00 | 93 | 1021.8 |
| 20260901013342 | 52 | 217 | 0.0 | 0.0 | 0.00 | 0.04 | 0.00 | 93 | 1021.9 |
| 20260901012817 | 52 | 217 | 0.0 | 1.0 | 0.00 | 0.04 | 0.00 | 93 | 1021.9 |
| 20260901012313 | 52 | 217 | 0.0 | 2.0 | 0.00 | 0.04 | 0.00 | 93 | 1021.9 |
| 20260901011830 | 52 | 217 | 1.0 | 2.0 | 0.00 | 0.04 | 0.00 | 93 | 1021.9 |
| 20260901011329 | 52 | 217 | 1.0 | 2.0 | 0.00 | 0.04 | 0.00 | 93 | 1021.8 |
| 20260901010823 | 52 | 217 | 0.0 | 1.0 | 0.00 | 0.04 | 0.00 | 93 | 1021.8 |
| 20260901010321 | 52 | 217 | 0.0 | 2.0 | 0.00 | 0.04 | 0.00 | 93 | 1021.9 |
| 20260901005817 | 52 | 217 | 1.0 | 2.0 | 0.00 | 0.04 | 0.00 | 93 | 1021.8 |
| 20260901005313 | 52 | 217 | 0.0 | 1.0 | 0.00 | 0.04 | 0.00 | 92 | 1021.8 |
| 20260901004829 | 52 | 217 | 0.0 | 1.0 | 0.00 | 0.04 | 0.00 | 92 | 1021.8 |
| 20260901004348 | 52 | 217 | 0.0 | 0.0 | 0.00 | 0.04 | 0.00 | 92 | 1021.8 |
| 20260901003819 | 52 | 217 | 0.0 | 0.0 | 0.00 | 0.04 | 0.00 | 92 | 1021.8 |
| 20260901003317 | 52 | 217 | 0.0 | 0.0 | 0.00 | 0.04 | 0.00 | 92 | 1021.9 |
| 20260901002833 | 52 | 217 | 0.0 | 0.0 | 0.00 | 0.04 | 0.00 | 92 | 1021.8 |
| 20260901002328 | 53 | 217 | 0.0 | 1.0 | 0.00 | 0.04 | 0.00 | 92 | 1021.8 |
| 20260901001838 | 52 | 217 | 0.0 | 2.0 | 0.00 | 0.04 | 0.00 | 92 | 1021.7 |
| 20260901001337 | 52 | 217 | 1.0 | 2.0 | 0.00 | 0.04 | 0.00 | 92 | 1021.7 |
| 20260901000834 | 52 | 217 | 0.0 | 0.0 | 0.00 | 0.04 | 0.00 | 92 | 1021.8 |
| 20260901000333 | 52 | 217 | 0.0 | 0.0 | 0.00 | 0.04 | 0.00 | 92 | 1021.8 |
| 20260831235827 | 53 | 217 | 0.0 | 0.0 | 0.00 | 0.04 | 0.00 | 92 | 1021.8 |
| 20260831235325 | 53 | 217 | 0.0 | 0.0 | 0.00 | 0.04 | 0.00 | 92 | 1021.9 |
| 20260831234819 | 53 | 217 | 0.0 | 0.0 | 0.00 | 0.04 | 0.00 | 92 | 1021.9 |
| 20260831234337 | 53 | 217 | 0.0 | 0.0 | 0.00 | 0.04 | 0.00 | 92 | 1021.9 |
| 20260831233830 | 53 | 217 | 0.0 | 1.0 | 0.00 | 0.04 | 0.00 | 92 | 1021.8 |
| 20260831233326 | 53 | 217 | 0.0 | 1.0 | 0.00 | 0.04 | 0.00 | 92 | 1021.8 |
| 20260831232820 | 53 | 217 | 0.0 | 1.0 | 0.00 | 0.04 | 0.00 | 92 | 1021.8 |
| 20260831232318 | 53 | 217 | 0.0 | 0.0 | 0.00 | 0.04 | 0.00 | 92 | 1021.7 |
| 20260831231833 | 54 | 217 | 0.0 | 1.0 | 0.00 | 0.04 | 0.00 | 92 | 1021.7 |
| 20260831231331 | 54 | 217 | 1.0 | 1.0 | 0.00 | 0.04 | 0.00 | 92 | 1021.7 |
| 20260831230826 | 54 | 217 | 0.0 | 0.0 | 0.00 | 0.04 | 0.00 | 91 | 1021.7 |
| 20260831230343 | 54 | 217 | 0.0 | 0.0 | 0.00 | 0.04 | 0.00 | 92 | 1021.8 |
| 20260831225818 | 54 | 217 | 0.0 | 0.0 | 0.00 | 0.04 | 0.00 | 91 | 1021.8 |
| 20260831225335 | 54 | 217 | 0.0 | 0.0 | 0.00 | 0.04 | 0.00 | 91 | 1021.8 |
| 20260831224831 | 54 | 217 | 0.0 | 0.0 | 0.00 | 0.04 | 0.00 | 91 | 1021.8 |
| 20260831224327 | 54 | 217 | 0.0 | 0.0 | 0.00 | 0.04 | 0.00 | 91 | 1021.8 |
| 20260831223823 | 54 | 217 | 0.0 | 0.0 | 0.00 | 0.04 | 0.00 | 91 | 1021.8 |
| 20260831223342 | 54 | 217 | 0.0 | 0.0 | 0.00 | 0.04 | 0.00 | 91 | 1021.8 |
| 20260831222832 | 54 | 217 | 0.0 | 0.0 | 0.00 | 0.04 | 0.00 | 91 | 1021.8 |
| 20260831222329 | 54 | 217 | 0.0 | 0.0 | 0.00 | 0.04 | 0.00 | 91 | 1021.7 |
| 20260831221824 | 54 | 217 | 0.0 | 0.0 | 0.00 | 0.04 | 0.00 | 91 | 1021.7 |
| 20260831221322 | 54 | 217 | 0.0 | 0.0 | 0.00 | 0.04 | 0.00 | 91 | 1021.7 |
| 20260831220817 | 55 | 217 | 0.0 | 0.0 | 0.00 | 0.04 | 0.00 | 91 | 1021.7 |
| 20260831220314 | 55 | 217 | 0.0 | 0.0 | 0.00 | 0.04 | 0.00 | 90 | 1021.6 |
| 20260831215850 | 55 | 217 | 0.0 | 0.0 | 0.00 | 0.04 | 0.01 | 90 | 1021.6 |
| 20260831215324 | 55 | 217 | 0.0 | 0.0 | 0.00 | 0.04 | 0.01 | 90 | 1021.5 |
| 20260831214820 | 55 | 217 | 0.0 | 0.0 | 0.00 | 0.04 | 0.01 | 90 | 1021.6 |
| 20260831214319 | 55 | 217 | 0.0 | 1.0 | 0.00 | 0.04 | 0.01 | 90 | 1021.5 |
| 20260831213832 | 55 | 217 | 0.0 | 1.0 | 0.00 | 0.04 | 0.01 | 90 | 1021.5 |